Data for 11/29/2010

Time Sea-Level Adjusted Pressure Absolute Pressure Temperature Relative Humidity Dew Point   
(mb) (inHg) (mb) (inHg) (C) (F) (%) (C) (F)
00:05 1017 30.03 846 24.98 -6.8 19.8 89 -8.3 17.1
00:10 1017 30.03 846 24.98 -6.8 19.7 89 -8.3 17
00:15 1017 30.03 846 24.98 -6.8 19.7 89 -8.3 17.1
00:20 1017 30.03 846 24.98 -6.8 19.7 90 -8.3 17.1
00:25 1017 30.03 846 24.98 -6.8 19.7 90 -8.3 17.1
00:30 1017 30.03 846 24.98 -6.9 19.6 90 -8.3 17.1
00:35 1017 30.03 846 24.98 -6.9 19.6 90 -8.2 17.2
00:40 1017 30.03 846 24.98 -6.9 19.7 90 -8.2 17.2
00:45 1017 30.03 846 24.98 -6.9 19.5 91 -8.2 17.3
00:50 1017 30.03 846 24.98 -6.9 19.6 91 -8.2 17.3
00:55 1017 30.03 846 24.98 -6.9 19.6 90 -8.2 17.2
01:00 1017 30.03 846 24.98 -6.9 19.5 91 -8.2 17.3
01:05 1017 30.03 846 24.98 -6.9 19.6 91 -8.2 17.3
01:10 1017 30.03 846 24.98 -6.9 19.6 91 -8.1 17.4
01:15 1017 30.03 846 24.98 -6.8 19.8 91 -8 17.6
01:20 1017 30.03 846 24.98 -6.8 19.7 91 -8.1 17.4
01:25 1017 30.03 846 24.98 -6.9 19.6 91 -8.1 17.5
01:30 1017 30.03 846 24.98 -6.9 19.7 91 -8.1 17.4
01:35 1017 30.03 846 24.98 -6.9 19.5 91 -8.1 17.4
01:40 1017 30.03 847 25.01 -7 19.5 92 -8.1 17.4
01:45 1017 30.03 847 25.01 -6.9 19.6 92 -8 17.6
01:50 1017 30.03 847 25.01 -6.9 19.6 92 -8 17.6
01:55 1018 30.06 847 25.01 -6.9 19.6 92 -8 17.6
02:00 1018 30.06 847 25.01 -6.9 19.6 92 -8 17.6
02:05 1018 30.06 847 25.01 -6.8 19.7 92 -8 17.7
02:10 1018 30.06 847 25.01 -6.9 19.6 92 -8 17.6
02:15 1018 30.06 847 25.01 -6.9 19.6 91 -8.1 17.5
02:20 1018 30.06 847 25.01 -6.9 19.5 92 -8 17.5
02:25 1018 30.06 847 25.01 -7 19.5 92 -8.1 17.5
02:30 1018 30.06 847 25.01 -7 19.5 92 -8.1 17.5
02:35 1018 30.06 847 25.01 -6.9 19.5 92 -8 17.6
02:40 1018 30.06 847 25.01 -7 19.4 92 -8 17.5
02:45 1018 30.06 847 25.01 -7 19.4 92 -8 17.5
02:50 1018 30.06 847 25.01 -6.9 19.5 92 -8.1 17.5
02:55 1018 30.06 847 25.01 -7 19.5 92 -8.1 17.4
03:00 1018 30.06 848 25.04 -7 19.4 92 -8.1 17.3
03:05 1018 30.06 848 25.04 -7 19.3 92 -8.1 17.3
03:10 1018 30.06 848 25.04 -7 19.3 92 -8.2 17.3
03:15 1018 30.06 848 25.04 -7.1 19.3 91 -8.2 17.2
03:20 1018 30.06 848 25.04 -7.1 19.3 91 -8.3 17.1
03:25 1019 30.09 848 25.04 -7.1 19.2 91 -8.3 17.1
03:30 1019 30.09 848 25.04 -7.1 19.3 91 -8.3 17.1
03:35 1019 30.09 848 25.04 -7.1 19.2 91 -8.3 17
03:40 1019 30.09 848 25.04 -7.1 19.2 91 -8.4 16.9
03:45 1019 30.09 848 25.04 -7.1 19.2 91 -8.4 16.8
03:50 1019 30.09 848 25.04 -7.1 19.1 91 -8.4 16.9
03:55 1019 30.09 848 25.04 -7.1 19.2 91 -8.4 16.8
04:00 1019 30.09 848 25.04 -7.1 19.2 90 -8.5 16.7
04:05 1019 30.09 848 25.04 -7.2 19.1 90 -8.5 16.8
04:10 1019 30.09 848 25.04 -7.1 19.2 90 -8.4 16.9
04:15 1019 30.09 848 25.04 -7 19.3 90 -8.4 16.9
04:20 1019 30.09 848 25.04 -7 19.4 90 -8.4 16.9
04:25 1019 30.09 848 25.04 -7 19.4 90 -8.4 16.9
04:30 1019 30.09 848 25.04 -7 19.4 90 -8.4 16.8
04:35 1019 30.09 848 25.04 -7 19.3 90 -8.4 16.8
04:40 1019 30.09 848 25.04 -7 19.3 90 -8.4 16.8
04:45 1019 30.09 848 25.04 -7 19.3 90 -8.4 16.9
04:50 1019 30.09 848 25.04 -7 19.4 90 -8.4 16.9
04:55 1019 30.09 848 25.04 -7 19.4 90 -8.3 17
05:00 1019 30.09 849 25.07 -7 19.5 90 -8.4 17
05:05 1019 30.09 849 25.07 -7 19.3 91 -8.3 17
05:10 1020 30.12 849 25.07 -7.1 19.3 91 -8.3 17
05:15 1020 30.12 849 25.07 -7.2 19.1 91 -8.4 16.9
05:20 1020 30.12 849 25.07 -7.2 19.1 91 -8.4 16.9
05:25 1020 30.12 849 25.07 -7.1 19.2 91 -8.3 17.1
05:30 1020 30.12 849 25.07 -7.1 19.2 92 -8.3 17.1
05:35 1020 30.12 849 25.07 -7.1 19.3 91 -8.3 17.1
05:40 1020 30.12 849 25.07 -7 19.4 91 -8.2 17.2
05:45 1020 30.12 849 25.07 -7 19.4 91 -8.2 17.3
05:50 1020 30.12 849 25.07 -6.9 19.5 91 -8.1 17.4
05:55 1020 30.12 849 25.07 -6.9 19.5 91 -8.2 17.3
06:00 1020 30.12 849 25.07 -6.9 19.6 91 -8.1 17.5
06:05 1020 30.12 850 25.1 -6.8 19.8 91 -8 17.6
06:10 1020 30.12 850 25.1 -6.8 19.8 91 -8 17.6
06:15 1020 30.12 850 25.1 -6.7 19.9 91 -8 17.6
06:20 1021 30.15 850 25.1 -6.8 19.8 91 -8 17.7
06:25 1021 30.15 850 25.1 -6.8 19.8 91 -8 17.7
06:30 1021 30.15 850 25.1 -6.8 19.8 91 -7.9 17.7
06:35 1021 30.15 850 25.1 -6.7 19.9 91 -8 17.6
06:40 1021 30.15 850 25.1 -6.8 19.8 91 -8 17.6
06:45 1021 30.15 850 25.1 -6.8 19.8 91 -8 17.7
06:50 1021 30.15 850 25.1 -6.7 19.9 92 -7.9 17.8
06:55 1021 30.15 850 25.1 -6.7 20 91 -7.9 17.9
07:00 1021 30.15 850 25.1 -6.7 20 91 -7.9 17.8
07:05 1021 30.15 850 25.1 -6.7 19.9 91 -7.9 17.8
07:10 1021 30.15 850 25.1 -6.7 19.9 91 -8 17.6
07:15 1021 30.15 850 25.1 -6.7 19.9 91 -8 17.6
07:20 1021 30.15 850 25.1 -6.8 19.8 90 -8.1 17.5
07:25 1021 30.15 850 25.1 -6.8 19.8 90 -8.1 17.4
07:30 1021 30.15 851 25.13 -6.8 19.8 90 -8.2 17.2
07:35 1021 30.15 851 25.13 -6.8 19.7 90 -8.3 17.1
07:40 1022 30.18 851 25.13 -6.8 19.7 89 -8.4 17
07:45 1022 30.18 851 25.13 -6.8 19.7 88 -8.5 16.8
07:50 1022 30.18 851 25.13 -6.8 19.8 87 -8.5 16.7
07:55 1022 30.18 851 25.13 -6.7 19.9 87 -8.5 16.7
08:00 1022 30.18 851 25.13 -6.8 19.8 86 -8.7 16.3
08:05 1022 30.18 851 25.13 -6.8 19.7 86 -8.9 16
08:10 1022 30.18 851 25.13 -6.8 19.8 86 -8.8 16.1
08:15 1022 30.18 851 25.13 -6.8 19.7 85 -8.9 15.9
08:20 1022 30.18 851 25.13 -6.8 19.8 85 -8.9 16
08:25 1022 30.18 851 25.13 -6.7 19.9 85 -8.8 16.1
08:30 1022 30.18 851 25.13 -6.7 20 83 -9.1 15.7
08:35 1022 30.18 851 25.13 -6.8 19.7 83 -9.2 15.4
08:40 1022 30.18 851 25.13 -6.8 19.8 83 -9.3 15.3
08:45 1022 30.18 851 25.13 -6.7 19.9 82 -9.3 15.2
08:50 1022 30.18 851 25.13 -6.7 20 81 -9.4 15.1
08:55 1022 30.18 851 25.13 -6.7 20 81 -9.4 15.1
09:00 1022 30.18 851 25.13 -6.6 20.2 80 -9.4 15
09:05 1022 30.18 851 25.13 -6.6 20.2 80 -9.4 15
09:10 1022 30.18 852 25.16 -6.5 20.3 79 -9.6 14.7
09:15 1022 30.18 852 25.16 -6.5 20.2 79 -9.6 14.7
09:20 1023 30.21 852 25.16 -6.5 20.4 77 -9.8 14.4
09:25 1023 30.21 852 25.16 -6.4 20.6 76 -10 14.1
09:30 1023 30.21 852 25.16 -6.1 21 75 -9.9 14.2
09:35 1023 30.21 852 25.16 -6.2 20.8 77 -9.7 14.6
09:40 1023 30.21 852 25.16 -6 21.1 76 -9.6 14.6
09:45 1023 30.21 852 25.16 -6 21.3 75 -9.6 14.7
09:50 1023 30.21 852 25.16 -5.9 21.4 75 -9.7 14.5
09:55 1023 30.21 852 25.16 -5.7 21.7 73 -9.9 14.2
10:00 1023 30.21 852 25.16 -5.6 21.9 74 -9.5 14.9
10:05 1023 30.21 852 25.16 -6.1 21 77 -9.6 14.8
10:10 1023 30.21 852 25.16 -6.4 20.5 76 -9.9 14.1
10:15 1023 30.21 853 25.19 -6.3 20.7 74 -10.2 13.7
10:20 1023 30.21 853 25.19 -6.3 20.6 75 -10.1 13.9
10:25 1023 30.21 853 25.19 -6.3 20.7 75 -10 14
10:30 1024 30.24 853 25.19 -5.9 21.3 74 -9.8 14.4
10:35 1024 30.24 853 25.19 -5.6 21.8 73 -9.8 14.3
10:40 1024 30.24 853 25.19 -5.8 21.6 72 -10 14
10:45 1024 30.24 853 25.19 -5.5 22.2 69 -10.4 13.4
10:50 1024 30.24 853 25.19 -5.6 22 71 -10 13.9
10:55 1024 30.24 853 25.19 -5.4 22.2 69 -10.2 13.7
11:00 1024 30.24 853 25.19 -5.1 22.8 68 -10.1 13.7
11:05 1024 30.24 853 25.19 -4.9 23.2 65 -10.4 13.2
11:10 1024 30.24 853 25.19 -3.9 25.1 61 -10.3 13.5
11:15 1024 30.24 853 25.19 -3.9 24.9 60 -10.6 13
11:20 1024 30.24 853 25.19 -3.8 25.2 59 -10.7 12.7
11:25 1024 30.24 853 25.19 -4.2 24.4 63 -10.3 13.4
11:30 1024 30.24 853 25.19 -5.4 22.2 66 -10.8 12.6
11:35 1024 30.24 853 25.19 -5.6 21.9 66 -10.9 12.3
11:40 1024 30.24 853 25.19 -5.3 22.5 64 -11.1 12
11:45 1024 30.24 853 25.19 -5.2 22.6 64 -11.1 12.1
11:50 1024 30.24 853 25.19 -5.3 22.5 62 -11.6 11.2
11:55 1024 30.24 853 25.19 -5 23 62 -11.1 12
12:00 1024 30.24 853 25.19 -4.6 23.8 55 -12.3 9.9
12:05 1024 30.24 853 25.19 -4.8 23.4 55 -12.6 9.3
12:10 1024 30.24 853 25.19 -4.8 23.3 56 -12.4 9.8
12:15 1024 30.24 853 25.19 -4.6 23.7 55 -12.3 9.8
12:20 1024 30.24 853 25.19 -4.3 24.2 54 -12.2 10
12:25 1024 30.24 853 25.19 -4.3 24.3 53 -12.4 9.7
12:30 1024 30.24 853 25.19 -4.7 23.6 58 -11.7 10.9
12:35 1024 30.24 853 25.19 -4.7 23.5 58 -11.9 10.6
12:40 1024 30.24 853 25.19 -4 24.8 55 -11.7 11
12:45 1024 30.24 853 25.19 -4.4 24.2 58 -11.4 11.4
12:50 1024 30.24 853 25.19 -4.1 24.6 55 -11.9 10.5
12:55 1024 30.24 853 25.19 -3.6 25.5 53 -11.9 10.6
13:00 1024 30.24 853 25.19 -3.2 26.2 50 -12.2 10
13:05 1024 30.24 853 25.19 -3.1 26.4 49 -12.5 9.5
13:10 1024 30.24 853 25.19 -2.5 27.6 48 -12 10.4
13:15 1024 30.24 853 25.19 -2.5 27.5 47 -12.2 10
13:20 1024 30.24 853 25.19 -2.4 27.6 48 -11.9 10.5
13:25 1024 30.24 853 25.19 -2.6 27.3 49 -12 10.5
13:30 1024 30.24 853 25.19 -2.6 27.4 50 -11.7 10.9
13:35 1024 30.24 853 25.19 -2.4 27.7 48 -12 10.5
13:40 1024 30.24 853 25.19 -2.2 28 47 -12 10.4
13:45 1024 30.24 853 25.19 -2.2 28 47 -12.1 10.2
13:50 1024 30.24 853 25.19 -2.2 28 45 -12.6 9.4
13:55 1024 30.24 853 25.19 -2.2 28.1 45 -12.6 9.4
14:00 1024 30.24 853 25.19 -2.1 28.2 44 -12.7 9.1
14:05 1024 30.24 853 25.19 -2.4 27.8 46 -12.4 9.7
14:10 1024 30.24 853 25.19 -2.4 27.7 46 -12.5 9.5
14:15 1024 30.24 853 25.19 -2.5 27.5 50 -11.6 11.1
14:20 1024 30.24 853 25.19 -2.6 27.3 47 -12.3 9.8
14:25 1024 30.24 853 25.19 -2.2 28 45 -12.5 9.5
14:30 1024 30.24 853 25.19 -2.4 27.8 47 -12.3 9.8
14:35 1024 30.24 853 25.19 -2.6 27.4 47 -12.5 9.4
14:40 1024 30.24 853 25.19 -2.7 27.2 48 -12.3 9.8
14:45 1024 30.24 853 25.19 -3.2 26.3 51 -11.9 10.5
14:50 1024 30.24 853 25.19 -3.7 25.4 51 -12.3 9.8
14:55 1024 30.24 853 25.19 -3.8 25.2 50 -12.7 9.1
15:00 1024 30.24 853 25.19 -4 24.8 51 -12.7 9.1
15:05 1024 30.24 853 25.19 -4.1 24.6 50 -13 8.5
15:10 1024 30.24 853 25.19 -3.9 25 52 -12.4 9.7
15:15 1024 30.24 853 25.19 -3.8 25.1 51 -12.6 9.3
15:20 1024 30.24 853 25.19 -4 24.8 51 -12.8 9
15:25 1024 30.24 853 25.19 -4.7 23.5 54 -12.6 9.4
15:30 1024 30.24 853 25.19 -5.1 22.8 54 -13.1 8.4
15:35 1024 30.24 853 25.19 -5.4 22.2 54 -13.4 8
15:40 1024 30.24 853 25.19 -5.6 21.8 54 -13.5 7.7
15:45 1024 30.24 853 25.19 -5.2 22.7 51 -13.9 7
15:50 1024 30.24 853 25.19 -5.7 21.7 53 -13.9 7
15:55 1024 30.24 853 25.19 -6 21.2 53 -14.2 6.4
16:00 1024 30.24 853 25.19 -6.5 20.2 54 -14.3 6.2
16:05 1024 30.24 853 25.19 -7 19.4 54 -14.7 5.5
16:10 1024 30.24 853 25.19 -7 19.4 56 -14.5 5.9
16:15 1024 30.24 854 25.22 -7 19.4 56 -14.4 6.2
16:20 1024 30.24 854 25.22 -7.1 19.3 56 -14.5 5.9
16:25 1024 30.24 854 25.22 -7.4 18.6 58 -14.4 6.1
16:30 1024 30.24 854 25.22 -7.7 18.2 62 -13.8 7.2
16:35 1024 30.24 854 25.22 -8.1 17.5 65 -13.5 7.8
16:40 1024 30.24 854 25.22 -8.2 17.2 69 -12.9 8.7
16:45 1024 30.24 854 25.22 -8.3 17 67 -13.3 8
16:50 1025 30.27 854 25.22 -8.7 16.4 73 -12.6 9.3
16:55 1025 30.27 854 25.22 -9.1 15.6 71 -13.4 7.9
17:00 1025 30.27 854 25.22 -9.6 14.7 73 -13.6 7.5
17:05 1025 30.27 854 25.22 -9.6 14.7 73 -13.6 7.5
17:10 1025 30.27 854 25.22 -9.8 14.3 73 -13.7 7.3
17:15 1025 30.27 854 25.22 -9.7 14.6 73 -13.7 7.3
17:20 1025 30.27 854 25.22 -9.8 14.3 74 -13.7 7.4
17:25 1025 30.27 854 25.22 -10 13.9 74 -13.8 7.1
17:30 1025 30.27 854 25.22 -10.1 13.7 74 -13.9 7
17:35 1025 30.27 854 25.22 -10.2 13.7 74 -13.9 6.9
17:40 1025 30.27 854 25.22 -10.2 13.6 75 -13.8 7.2
17:45 1025 30.27 854 25.22 -10.2 13.7 74 -13.9 6.9
17:50 1025 30.27 854 25.22 -10.2 13.6 74 -14 6.9
17:55 1025 30.27 854 25.22 -10.4 13.3 75 -14 6.9
18:00 1025 30.27 854 25.22 -10.6 12.9 76 -14.1 6.6
18:05 1025 30.27 854 25.22 -10.6 13 75 -14.1 6.6
18:10 1025 30.27 854 25.22 -10.5 13.1 77 -13.8 7.2
18:15 1025 30.27 854 25.22 -10.3 13.5 74 -14 6.8
18:20 1025 30.27 854 25.22 -10.5 13.2 74 -14.2 6.5
18:25 1025 30.27 854 25.22 -10.6 13 74 -14.4 6.1
18:30 1025 30.27 854 25.22 -10.6 12.9 74 -14.3 6.2
18:35 1025 30.27 854 25.22 -10.8 12.6 75 -14.4 6
18:40 1025 30.27 854 25.22 -10.5 13.1 75 -14.1 6.7
18:45 1025 30.27 854 25.22 -10.2 13.6 75 -13.8 7.1
18:50 1025 30.27 854 25.22 -10.1 13.8 74 -13.9 6.9
18:55 1025 30.27 854 25.22 -10 14.1 72 -14.1 6.6
19:00 1025 30.27 854 25.22 -10.1 13.9 71 -14.4 6.2
19:05 1025 30.27 854 25.22 -10.2 13.7 72 -14.4 6.1
19:10 1025 30.27 854 25.22 -10.2 13.6 73 -14.3 6.3
19:15 1025 30.27 854 25.22 -10.3 13.5 72 -14.4 6
19:20 1025 30.27 854 25.22 -10.7 12.8 73 -14.6 5.6
19:25 1025 30.27 854 25.22 -10.9 12.4 72 -15 5.1
19:30 1025 30.27 854 25.22 -11.1 12 73 -15 4.9
19:35 1025 30.27 854 25.22 -11 12.2 72 -15.1 4.9
19:40 1025 30.27 854 25.22 -11.6 11.2 74 -15.3 4.5
19:45 1025 30.27 854 25.22 -11.5 11.2 73 -15.4 4.3
19:50 1025 30.27 854 25.22 -11.3 11.7 72 -15.3 4.4
19:55 1025 30.27 854 25.22 -11.3 11.8 72 -15.3 4.4
20:00 1025 30.27 854 25.22 -11.5 11.2 74 -15.2 4.6
20:05 1025 30.27 854 25.22 -11.7 11 74 -15.4 4.3
20:10 1025 30.27 854 25.22 -11.2 11.9 71 -15.4 4.2
20:15 1025 30.27 854 25.22 -11.2 11.9 72 -15.3 4.4
20:20 1025 30.27 854 25.22 -11.1 12 74 -14.9 5.2
20:25 1025 30.27 854 25.22 -11.3 11.8 74 -14.9 5.1
20:30 1025 30.27 854 25.22 -10.8 12.5 70 -15.3 4.5
20:35 1025 30.27 854 25.22 -10.5 13 67 -15.6 3.9
20:40 1025 30.27 854 25.22 -10.3 13.4 66 -15.6 4
20:45 1025 30.27 854 25.22 -10.6 12.9 71 -14.8 5.3
20:50 1025 30.27 854 25.22 -10.8 12.6 70 -15.1 4.7
20:55 1025 30.27 854 25.22 -10.8 12.6 69 -15.5 4.2
21:00 1025 30.27 854 25.22 -10.9 12.3 69 -15.6 4
21:05 1025 30.27 854 25.22 -11.1 12.1 68 -16 3.3
21:10 1025 30.27 854 25.22 -11.2 11.8 67 -16.2 2.9
21:15 1025 30.27 854 25.22 -11.6 11.1 68 -16.3 2.6
21:20 1025 30.27 854 25.22 -12.4 9.8 72 -16.5 2.4
21:25 1025 30.27 854 25.22 -12.4 9.6 72 -16.5 2.3
21:30 1025 30.27 854 25.22 -11.9 10.6 70 -16.3 2.6
21:35 1025 30.27 854 25.22 -11.3 11.6 72 -15.4 4.2
21:40 1025 30.27 854 25.22 -11 12.3 71 -15.3 4.5
21:45 1025 30.27 854 25.22 -10.3 13.6 66 -15.4 4.4
21:50 1025 30.27 854 25.22 -10.7 12.8 68 -15.6 4
21:55 1025 30.27 854 25.22 -11.9 10.6 73 -15.9 3.4
22:00 1025 30.27 854 25.22 -12 10.4 73 -16 3.2
22:05 1025 30.27 854 25.22 -11.9 10.6 72 -15.9 3.4
22:10 1025 30.27 854 25.22 -11.6 11 72 -15.8 3.6
22:15 1025 30.27 854 25.22 -11.7 11 72 -15.8 3.5
22:20 1025 30.27 854 25.22 -12.2 10.1 73 -16.2 2.9
22:25 1025 30.27 854 25.22 -12.5 9.5 74 -16.2 2.8
22:30 1025 30.27 854 25.22 -12.5 9.5 73 -16.4 2.4
22:35 1025 30.27 854 25.22 -12.4 9.6 71 -16.6 2.1
22:40 1025 30.27 854 25.22 -12.9 8.7 70 -17.2 1
22:45 1025 30.27 855 25.25 -12.8 9 71 -17.1 1.3
22:50 1025 30.27 855 25.25 -12.8 9 73 -16.7 2
22:55 1025 30.27 855 25.25 -12.8 9 73 -16.8 1.8
23:00 1025 30.27 854 25.22 -13 8.6 74 -16.8 1.8
23:05 1025 30.27 855 25.25 -12.8 8.9 72 -16.8 1.7
23:10 1025 30.27 854 25.22 -12.8 8.9 72 -16.8 1.7
23:15 1025 30.27 854 25.22 -13 8.7 73 -16.9 1.6
23:20 1025 30.27 854 25.22 -12.8 8.9 72 -16.9 1.6
23:25 1025 30.27 855 25.25 -13.1 8.5 73 -16.9 1.5
23:30 1025 30.27 855 25.25 -13.3 8.1 74 -17 1.5
23:35 1025 30.27 854 25.22 -13.4 8 76 -16.8 1.8
23:40 1025 30.27 854 25.22 -13.3 8 78 -16.3 2.6
23:45 1025 30.27 855 25.25 -13.1 8.5 81 -15.6 3.8
23:50 1025 30.27 854 25.22 -12.7 9.2 75 -16.2 2.9
23:55 1025 30.27 854 25.22 -12.9 8.8 75 -16.4 2.4
24:00 1025 30.27 854 25.22 -12.9 8.7 79 -15.8 3.5